Location: Hartford
(41.7640°N, 72.6860°W)
Time: 17:04:30
(UTC-05:00)

ISS - Visible Passes

Search period start: 22 December 2014 00:00
Search period end: 01 January 2015 00:00
Orbit: 404 x 414 km, 51.6° (Epoch: 22 December)

Date Brightness Start Highest point End Pass type
(mag) Time Alt. Az. Time Alt. Az. Time Alt. Az.
22 Dec -1.6 17:05:00 10° NNW 17:07:24 18° NNE 17:09:31 11° ENE visible
22 Dec -0.9 18:41:11 10° NW 18:42:17 19° NW 18:42:17 19° NW visible
23 Dec -2.8 17:50:25 10° NW 17:53:33 40° NNE 17:53:54 38° NE visible
24 Dec -2.2 16:59:40 10° NW 17:02:32 27° NNE 17:05:24 10° E visible
24 Dec -1.9 18:36:04 10° WNW 18:38:28 38° W 18:38:28 38° W visible
25 Dec -3.4 17:45:04 10° NW 17:48:22 89° NE 17:50:30 20° SE visible
26 Dec -3.1 16:54:09 10° NW 16:57:23 51° NNE 17:00:35 10° ESE visible
26 Dec -0.6 18:31:17 10° W 18:33:42 19° SW 18:35:43 12° S visible
27 Dec -1.6 17:39:49 10° WNW 17:42:51 35° SW 17:45:51 10° SSE visible
29 Dec 0.0 17:35:09 10° W 17:36:59 14° SW 17:38:49 10° SSW visible
